Home > Time Zones > World Clock > Weather > India > Thane > Past weeks

Flag Weather past 2 weeks in Thane, Maharashtra, India

Now
82 °F

Scattered clouds.


Feels Like: 83 °F
Forecast: 70 / 97 °F
Wind: 7 mph from North

Location: Bombay / Santacruz

Current Time: Nov 29, 2014 at 11:10:47 AM

Latest Report: Nov 29, 2014 at 10:40 AM


Visibility: 1 mi

Pressure: 29.95 "Hg

Humidity: 51%

Dew point: 63 °F

Location of ThaneLocation

Historic Weather in Thane — Graph

°F

Thane temperature yesterday

Maximum temperature yesterday: 93 °F (at 1:40 PM)
Minimum temperature yesterday: 75 °F (at 4:10 AM)
Average temperature yesterday: 83 °F

Past Weeks' High & Low Weather Summary

 TemperatureHumidityPressure
High95 °F (Nov 18, 12:40 PM)84% (Nov 18, 6:10 AM)29.98 "Hg (Nov 18, 6:10 AM)
Low72 °F (Nov 27, 6:10 AM)24% (Nov 26, 2:40 PM)29.74 "Hg (Nov 26, 3:40 PM)
Average85 °F59%29.88 "Hg
* Reported Nov 14 10:10 AM — Nov 29 9:40 AM, Thane, Weather by CustomWeather, © 2014

Note: Actual official high and low records may vary slightly from our data, if they occured in-between our weather recording intervals... More about our weather records

Advertising

Thane weather history for previous 24 hours

 ConditionsComfort  
Time TempWeatherWind HumidityBarometerVisibility
9:40 AM
Nov 29
81 °FScattered clouds.8 mph54%29.95 "Hg1 mi
8:10 AM77 °FScattered clouds.No wind65%29.92 "Hg1 mi
7:40 AM75 °FScattered clouds.No wind69%29.92 "Hg1 mi
6:40 AM75 °FHaze.6 mph69%29.89 "Hg1 mi
6:10 AM75 °FHaze.No wind69%29.89 "Hg1 mi
5:40 AM75 °FHaze.3 mph69%29.86 "Hg1 mi
4:10 AM75 °FHaze.3 mph74%29.86 "Hg1 mi
3:40 AM77 °FHaze.3 mph69%29.86 "Hg1 mi
3:10 AM77 °FHaze.3 mph69%29.86 "Hg1 mi
2:40 AM77 °FHaze.No wind69%29.86 "Hg1 mi
1:40 AM79 °FHaze.No wind65%29.86 "Hg1 mi
1:10 AM79 °FHaze.No wind65%29.86 "Hg1 mi
12:40 AM79 °FHaze.No wind65%29.86 "Hg1 mi
11:40 PM
Nov 28
81 °FHaze.No wind66%29.89 "Hg1 mi
11:10 PM81 °FHaze.5 mph62%29.89 "Hg1 mi
10:40 PM81 °FHaze.5 mph62%29.89 "Hg1 mi
9:40 PM82 °FHaze.No wind58%29.89 "Hg1 mi
9:10 PM82 °FHaze.3 mph62%29.89 "Hg1 mi
8:40 PM84 °FHaze.7 mph58%29.89 "Hg1 mi
8:10 PM84 °FHaze.6 mph58%29.89 "Hg1 mi
7:40 PM84 °FHaze.8 mph62%29.86 "Hg1 mi
7:10 PM84 °FClear.6 mph58%29.86 "Hg1 mi
6:40 PM86 °FClear.6 mph55%29.86 "Hg1 mi
6:10 PM86 °FClear.6 mph52%29.83 "Hg1 mi
5:40 PM88 °FClear.7 mph46%29.83 "Hg1 mi
5:10 PM88 °FClear.9 mph49%29.83 "Hg2 mi
4:40 PM88 °FClear.7 mph46%29.83 "Hg2 mi
4:10 PM90 °FClear.9 mph41%29.83 "Hg2 mi
3:40 PM90 °FClear.10 mph46%29.83 "Hg1 mi
3:10 PM90 °FClear.9 mph41%29.83 "Hg1 mi
2:40 PM90 °FClear.10 mph41%29.83 "Hg1 mi
2:10 PM91 °FClear.10 mph36%29.83 "Hg1 mi
1:40 PM93 °FClear.5 mph24%29.83 "Hg2 mi
12:40 PM91 °FPassing clouds.7 mph28%29.86 "Hg1 mi
12:10 PM91 °FPassing clouds.7 mph30%29.89 "Hg1 mi
11:40 AM90 °FPassing clouds.9 mph36%29.89 "Hg1 mi
Weather by CustomWeather, © 2014

See weather overviewHow to use our weather pages